[[{"header":{"parameterUnit":"m.s-1","parameterCategory":1,"la1":30.2991,"la2":30.254,"lo1":-89.0895,"lo2":-89.0444,"dy":0.0017,"dx":0.0017,"nx":28,"ny":28,"refTime":"2024-03-04T03:00:00:Z","depth":0,"parameterNumber":2,"parameterNumberName":"U-component_of_WINDS"},"data":[0,0,0,0,0,0,0,0,0,0,0,0,0,0,0,0,0,0,0,0,0,0,0,0,0,0,0,0,0,0,0,0,0,0,0,0,0,0,0,0,0,0,0,0,0,0,0,0,0,0,0,0,0,0,0,0,0,0,-0.3171,-0.3172,0,-0.3254,-0.3255,-0.3256,-0.3239,-0.3237,-0.3236,-0.3234,-0.3326,-0.3329,-0.3333,0,0,0,0,0,0,0,0,0,0,0,0,0,-0.3004,-0.3007,-0.3171,-0.3172,-0.3173,-0.3254,-0.3255,-0.3256,-0.3239,-0.3237,-0.3236,-0.3234,-0.3324,-0.3329,-0.3334,0,0,0,0,0,0,0,0,0,0,0,0,0,-0.3081,-0.3008,-0.3171,-0.3174,-0.3175,-0.3254,-0.3255,-0.3256,-0.324,-0.3237,-0.3235,-0.3233,-0.3323,-0.3329,-0.3334,-0.3416,0,0,-0.3352,-0.3355,0,0,0,0,0,0,0,0,-0.3077,-0.3087,-0.3173,-0.3174,-0.3175,-0.3234,-0.323,-0.331,-0.324,-0.3215,-0.3234,-0.3232,-0.3297,-0.3305,-0.3326,-0.3421,-0.3424,-0.3353,-0.3356,-0.3359,-0.336,0,0,0,0,0,0,0,-0.3071,-0.3084,-0.3204,-0.3174,-0.3176,-0.3174,-0.3182,-0.3245,-0.3269,-0.3217,-0.3216,-0.3226,-0.3298,-0.332,-0.3328,-0.3426,-0.3352,-0.3357,-0.3361,-0.3363,-0.3595,-0.3597,0,0,0,0,0,0,-0.3064,-0.3079,-0.3201,-0.3206,-0.3119,-0.3179,-0.3188,-0.3217,-0.3268,-0.3273,-0.3228,-0.3225,-0.3312,-0.3321,-0.3331,-0.3433,-0.3358,-0.3364,-0.3367,-0.3592,-0.3595,-0.3598,0,0,0,0,0,0,-0.306,-0.3075,-0.3198,-0.3142,-0.3158,-0.3184,-0.3217,-0.322,-0.3243,-0.3276,-0.328,-0.3246,-0.331,-0.3323,-0.3395,-0.3436,-0.3367,-0.3372,-0.3589,-0.3593,-0.3597,-0.3635,0,0,0,0,0,0,-0.3056,-0.3074,-0.3103,-0.3143,-0.3161,-0.3259,-0.3219,-0.3224,-0.3252,-0.3249,-0.3294,-0.33,-0.3309,-0.3387,-0.3401,-0.3442,-0.3376,-0.3586,-0.3591,-0.3595,-0.363,-0.364,-0.3648,0,0,0,0,0,-0.305,-0.3112,-0.3105,-0.312,-0.3198,-0.3261,-0.3272,-0.328,-0.3255,-0.3287,-0.3308,-0.3298,-0.3428,-0.3394,-0.341,-0.3454,-0.3583,-0.3589,-0.3595,-0.3626,-0.3638,-0.3648,0,0,0,0,0,0,-0.3078,-0.3117,-0.311,-0.3186,-0.322,-0.3258,-0.3298,-0.3291,-0.3335,-0.333,-0.3341,-0.3351,-0.3425,-0.3446,-0.3408,-0.3537,-0.3503,-0.3512,-0.3521,-0.3532,-0.3541,-0.3535,-0.3381,0,0,0,0,0,-0.3092,-0.3138,-0.317,-0.3235,-0.3252,-0.3272,-0.33,-0.3303,-0.334,-0.3355,-0.3381,-0.3419,-0.3468,-0.3501,-0.3548,-0.3632,-0.3644,-0.367,-0.3679,-0.3686,-0.3695,-0.3744,-0.3757,-0.3618,-0.3618,-0.3618,0,0,-0.3124,-0.3151,-0.318,-0.3241,-0.3268,-0.3318,-0.3285,-0.3338,-0.3376,-0.3363,-0.3434,-0.3454,-0.3497,-0.3577,-0.3613,-0.3597,-0.3736,-0.3694,-0.3699,-0.3705,-0.3752,-0.3765,-0.3777,-0.3622,-0.3621,-0.3621,0,0,-0.3208,-0.3231,-0.3289,-0.3316,-0.3356,-0.3369,-0.3383,-0.3422,-0.3435,-0.3505,-0.3498,-0.3544,-0.3628,-0.366,-0.3687,-0.3783,-0.3777,-0.3798,-0.3845,-0.3893,-0.3904,-0.3914,-0.3951,-0.3964,-0.3806,-0.3806,-0.3806,0,-0.3243,-0.3315,-0.3319,-0.3374,-0.3403,-0.3392,-0.3452,-0.3478,-0.3533,-0.3554,-0.3534,-0.3641,-0.3669,-0.3757,-0.3781,-0.3802,-0.382,-0.3794,-0.3901,-0.3911,-0.3921,-0.3957,-0.397,-0.3809,-0.3809,-0.3808,-0.3808,0,-0.3358,-0.3408,-0.345,-0.3501,-0.3534,-0.3591,-0.3607,-0.364,-0.364,-0.3656,-0.3729,-0.3762,-0.3817,-0.3838,-0.3839,-0.3927,-0.3916,-0.3898,-0.3864,-0.3936,-0.397,-0.3984,-0.3813,-0.3812,-0.3811,-0.381,0,0,-0.3463,-0.3516,-0.3531,-0.3556,-0.3599,-0.364,-0.3697,-0.3749,-0.3779,-0.3817,-0.3867,-0.3939,-0.3924,-0.3955,-0.396,-0.4001,-0.4079,-0.3979,-0.398,-0.3999,-0.4181,-0.4196,-0.4211,-0.4073,-0.4076,-0.4078,-0.4178,0,-0.3552,-0.3652,-0.3658,-0.3749,-0.3797,-0.3788,-0.3838,-0.3872,-0.3889,-0.3934,-0.3952,-0.4004,-0.3979,-0.3998,-0.4038,-0.4061,-0.4116,-0.4053,-0.4124,-0.4126,-0.4116,-0.4228,-0.4244,-0.4337,-0.4191,-0.4193,-0.4195,0,-0.3671,-0.3711,-0.3807,-0.3846,-0.3866,-0.3911,-0.396,-0.4002,-0.4042,-0.4051,-0.4085,-0.4085,-0.4146,-0.4108,-0.4195,-0.4152,-0.4181,-0.4197,-0.4201,-0.421,-0.4167,-0.4244,-0.4367,-0.4382,-0.4215,-0.4214,-0.4212,0,-0.3742,-0.382,-0.3888,-0.3908,-0.3954,-0.3987,-0.4008,-0.4044,-0.4076,-0.4119,-0.414,-0.4191,-0.4219,-0.4259,-0.4273,-0.4243,-0.4361,-0.4323,-0.4373,-0.4373,-0.4401,-0.4399,-0.4533,-0.4414,-0.4414,-0.4414,-0.4413,0,-0.3843,-0.3903,-0.392,-0.3963,-0.403,-0.4037,-0.4105,-0.4124,-0.4157,-0.4205,-0.4199,-0.4244,-0.4258,-0.4307,-0.4318,-0.439,-0.4403,-0.4414,-0.4417,-0.4416,-0.4415,-0.4438,-0.4433,-0.4417,-0.4417,-0.4416,-0.4415,0,-0.3935,-0.3948,-0.4022,-0.4059,-0.407,-0.4119,-0.4152,-0.4194,-0.4209,-0.427,-0.4284,-0.4309,-0.4366,-0.4383,-0.4452,-0.446,-0.4545,-0.4541,-0.4532,-0.4533,-0.4584,-0.458,-0.4739,-0.4762,-0.4625,-0.4626,-0.4627,0,-0.4,-0.4045,-0.4087,-0.4118,-0.414,-0.419,-0.4222,-0.4231,-0.4264,-0.4313,-0.435,-0.4406,-0.4451,-0.4543,-0.4569,-0.4622,-0.4621,-0.4673,-0.4629,-0.4628,-0.4626,-0.4624,-0.463,-0.4682,-0.4684,-0.4685,-0.4686,0,-0.4115,-0.412,-0.4165,-0.4213,-0.4251,-0.429,-0.4327,-0.4353,-0.4368,-0.4407,-0.4464,-0.4499,-0.4569,-0.4626,-0.468,-0.4704,-0.4699,-0.4699,-0.4714,-0.4715,-0.471,-0.4717,-0.4558,-0.4696,-0.4695,-0.4694,-0.4694,-0.4693,-0.4198,-0.4239,-0.4276,-0.4327,-0.4355,-0.439,-0.4432,-0.4452,-0.45,-0.4556,-0.4559,-0.4622,-0.4662,-0.4734,-0.4761,-0.4812,-0.4797,-0.4818,-0.4824,-0.483,-0.4836,-0.4699,-0.4821,-0.4821,-0.4821,-0.4821,-0.4821,0,-0.4316,-0.4339,-0.4386,-0.4438,-0.4479,-0.4467,-0.4508,-0.4544,-0.4599,-0.4635,-0.468,-0.4747,-0.4802,-0.4832,-0.4887,-0.4923,-0.4922,-0.4938,-0.4937,-0.4943,-0.4844,-0.4827,-0.4938,-0.4938,-0.4938,-0.4937,-0.4937,-0.4937,-0.4383,-0.4453,-0.4462,-0.4547,-0.4569,-0.463,-0.4655,-0.4689,-0.4718,-0.4793,-0.4838,-0.4856,-0.4891,-0.4949,-0.5,-0.5007,-0.503,-0.5048,-0.5054,-0.4962,-0.495,-0.4939,-0.4923,-0.5051,-0.5052,-0.5149,-0.515,-0.5151]},{"header":{"parameterUnit":"m.s-1","parameterCategory":1,"la1":30.2991,"la2":30.254,"lo1":-89.0895,"lo2":-89.0444,"dy":0.0017,"dx":0.0017,"nx":28,"ny":28,"refTime":"2024-03-04T03:00:00:Z","depth":0,"parameterNumber":3,"parameterNumberName":"V-component_of_WINDS"},"data":[0,0,0,0,0,0,0,0,0,0,0,0,0,0,0,0,0,0,0,0,0,0,0,0,0,0,0,0,0,0,0,0,0,0,0,0,0,0,0,0,0,0,0,0,0,0,0,0,0,0,0,0,0,0,0,0,0,0,1.2213,1.2214,0,1.2321,1.2322,1.2323,1.2312,1.2311,1.2309,1.2308,1.2421,1.2425,1.243,0,0,0,0,0,0,0,0,0,0,0,0,0,1.2001,1.2005,1.2213,1.2214,1.2215,1.2321,1.2322,1.2324,1.2313,1.2311,1.2309,1.2307,1.2419,1.2425,1.243,0,0,0,0,0,0,0,0,0,0,0,0,0,1.2099,1.2006,1.2212,1.2223,1.2225,1.232,1.2322,1.2324,1.2313,1.2311,1.2308,1.2306,1.2417,1.2424,1.2431,1.2524,0,0,1.2452,1.2455,0,0,0,0,0,0,0,0,1.2094,1.2107,1.222,1.2222,1.2224,1.23,1.2289,1.2391,1.2314,1.228,1.2307,1.2305,1.2383,1.2392,1.2418,1.2529,1.2534,1.2453,1.2457,1.246,1.2462,0,0,0,0,0,0,0,1.2087,1.2102,1.2256,1.2221,1.2224,1.2223,1.2234,1.2308,1.2344,1.2282,1.2282,1.2295,1.2384,1.2412,1.2421,1.2536,1.2452,1.2458,1.2463,1.2465,1.2734,1.2737,0,0,0,0,0,0,1.2077,1.2097,1.2252,1.2259,1.2151,1.2229,1.2241,1.2279,1.2343,1.2351,1.2297,1.2294,1.2401,1.2413,1.2425,1.2543,1.246,1.2466,1.247,1.2731,1.2734,1.2738,0,0,0,0,0,0,1.2073,1.2091,1.2248,1.2178,1.2198,1.2235,1.2277,1.2282,1.231,1.2354,1.2361,1.2319,1.24,1.2415,1.25,1.2546,1.2469,1.2475,1.2727,1.2732,1.2736,1.2776,0,0,0,0,0,0,1.2067,1.209,1.2125,1.2179,1.2201,1.2321,1.228,1.2286,1.2322,1.2319,1.2377,1.2384,1.2399,1.249,1.2507,1.2554,1.2481,1.2723,1.2729,1.2735,1.2771,1.2782,1.2791,0,0,0,0,0,1.2059,1.2131,1.2126,1.2145,1.2246,1.2323,1.2336,1.2352,1.2325,1.2362,1.2391,1.2382,1.2537,1.2499,1.2518,1.2568,1.2721,1.2728,1.2734,1.2767,1.278,1.279,0,0,0,0,0,0,1.2082,1.2138,1.2134,1.2225,1.2269,1.2321,1.2368,1.2364,1.2417,1.2413,1.243,1.2443,1.253,1.2557,1.2513,1.2664,1.2626,1.2637,1.2644,1.2657,1.2666,1.266,1.2487,0,0,0,0,0,1.2097,1.2155,1.2201,1.2277,1.23,1.233,1.2364,1.2372,1.2419,1.2438,1.2473,1.252,1.258,1.2619,1.2675,1.2773,1.2788,1.2817,1.2827,1.2835,1.2846,1.2904,1.2919,1.276,1.276,1.276,0,0,1.2131,1.2169,1.2204,1.2283,1.2318,1.238,1.2346,1.2411,1.2457,1.2448,1.2532,1.2559,1.2612,1.2706,1.2748,1.2731,1.2892,1.2843,1.2849,1.2856,1.2913,1.2928,1.2941,1.2764,1.2763,1.2763,0,0,1.2224,1.2256,1.2326,1.2362,1.2415,1.2435,1.2452,1.2504,1.2522,1.2606,1.2602,1.2657,1.2758,1.2798,1.2832,1.294,1.2936,1.2958,1.3011,1.3068,1.3081,1.3092,1.3136,1.3151,1.2968,1.2968,1.2968,0,1.2259,1.235,1.2362,1.2429,1.2466,1.2459,1.2531,1.2565,1.2636,1.2662,1.264,1.277,1.2805,1.291,1.2936,1.2962,1.2984,1.2954,1.3077,1.3089,1.31,1.3142,1.3158,1.2971,1.297,1.297,1.297,0,1.2393,1.2456,1.2506,1.2574,1.2616,1.2685,1.2709,1.275,1.2754,1.2776,1.2864,1.2905,1.2973,1.2997,1.3001,1.3104,1.3092,1.3073,1.3036,1.3118,1.3158,1.3174,1.2974,1.2973,1.2973,1.2972,0,0,1.2507,1.2581,1.2599,1.2632,1.2691,1.2741,1.281,1.2876,1.2913,1.296,1.3022,1.3108,1.3093,1.3131,1.3139,1.3188,1.3278,1.3164,1.3166,1.3189,1.34,1.3418,1.3436,1.3273,1.3276,1.3279,1.3397,0,1.261,1.2733,1.2746,1.2857,1.2918,1.2913,1.2974,1.3018,1.304,1.3096,1.3121,1.3184,1.3156,1.3179,1.3227,1.3257,1.3322,1.3248,1.3335,1.3338,1.3328,1.3456,1.3475,1.3584,1.3412,1.3415,1.3417,0,1.2747,1.2801,1.2918,1.2971,1.2997,1.3052,1.3115,1.3167,1.3218,1.3231,1.3274,1.3276,1.335,1.3306,1.3411,1.3361,1.3397,1.3417,1.3421,1.3435,1.3387,1.3479,1.3619,1.3638,1.3441,1.3439,1.3437,0,1.2826,1.2926,1.301,1.3037,1.31,1.314,1.3168,1.3215,1.3255,1.331,1.3337,1.3398,1.3434,1.3483,1.3503,1.3468,1.3609,1.3565,1.3626,1.3626,1.366,1.3659,1.3815,1.3673,1.3673,1.3673,1.3672,0,1.2943,1.3017,1.3047,1.31,1.3183,1.3196,1.3279,1.3305,1.3348,1.3407,1.3404,1.346,1.348,1.354,1.3555,1.3643,1.3657,1.3673,1.3677,1.3677,1.3676,1.3705,1.37,1.3677,1.3676,1.3675,1.3674,0,1.3047,1.3069,1.3162,1.3214,1.3229,1.3289,1.3334,1.3386,1.3407,1.3482,1.3501,1.3535,1.3605,1.3628,1.3713,1.3724,1.3828,1.3822,1.3812,1.3814,1.3875,1.3872,1.406,1.4088,1.3922,1.3924,1.3925,0,1.3124,1.3181,1.3239,1.3278,1.3308,1.3371,1.3412,1.3427,1.347,1.3533,1.3578,1.3647,1.3705,1.3818,1.3852,1.3917,1.3917,1.3979,1.3928,1.3927,1.3926,1.3925,1.3933,1.399,1.3992,1.3993,1.3995,0,1.326,1.3268,1.3326,1.339,1.3439,1.3489,1.3538,1.357,1.3593,1.3642,1.3714,1.3758,1.3845,1.3917,1.3984,1.4014,1.4011,1.4009,1.4028,1.4032,1.4026,1.4036,1.3844,1.4007,1.4005,1.4005,1.4004,1.4003,1.3357,1.3409,1.3459,1.3525,1.3563,1.3609,1.3662,1.3689,1.3749,1.3822,1.3827,1.3906,1.3957,1.4047,1.4081,1.4144,1.4128,1.4153,1.4161,1.4168,1.4177,1.401,1.4156,1.4155,1.4155,1.4155,1.4155,0,1.3498,1.3529,1.359,1.3659,1.3712,1.37,1.3754,1.38,1.3869,1.3916,1.3973,1.4057,1.4126,1.4165,1.4234,1.4278,1.4278,1.4296,1.4297,1.4305,1.4184,1.4164,1.4295,1.4295,1.4295,1.4295,1.4295,1.4295,1.3578,1.3667,1.3681,1.379,1.3821,1.3899,1.3931,1.3975,1.4013,1.4108,1.4165,1.4189,1.4234,1.4307,1.4371,1.438,1.4409,1.443,1.4439,1.4327,1.4313,1.4299,1.4281,1.4434,1.4434,1.4555,1.4556,1.4557]}]]